Location: Paris
(48.6709°N, 2.3750°E)
Time: 12:58:08
(UTC+02:00)

CUBESAT XI-V - Pass Details

Date: 28 June 2022
Orbit: 668 x 690 km, 98.1° (Epoch: 17 August)

Event Time Altitude Azimuth Distance (km) Brightness Sun altitude
Rises 01:31:57 0° 102° (ESE) 3,027 ? -17.9°
Reaches altitude 10° 01:36:33 10° 59° (ENE) 2,113 ? -17.9°
Maximum altitude 01:37:02 10° 53° (NE) 2,103 ? -17.9°
Drops below altitude 10° 01:37:31 10° 47° (NE) 2,113 ? -17.9°
Sets 01:42:06 0° 4° (N) 3,029 ? -18.0°
